Date,TemperatureHighF,TemperatureAvgF,TemperatureLowF,DewpointHighF,DewpointAvgF,DewpointLowF,HumidityHigh,HumidityAvg,HumidityLow,PressureMaxIn,PressureMinIn,WindSpeedMaxMPH,WindSpeedAvgMPH,GustSpeedMaxMPH,PrecipitationSumIn
2013-3-1,89.1,80.1,72.1,70.6,66.8,58.5,86,66,38,29.78,29.65,13,3,17,0.00
2013-3-2,90.0,78.8,69.3,68.7,65.9,62.9,87,66,43,29.76,29.65,11,3,17,0.00
2013-3-3,92.8,79.6,69.1,73.2,68.7,64.3,87,71,43,29.79,29.67,13,3,18,0.00
2013-3-4,93.2,78.4,72.0,74.3,70.9,65.4,94,79,49,29.85,29.73,14,3,21,0.47
2013-3-5,79.5,74.7,72.0,72.9,69.8,65.6,95,85,68,29.89,29.79,11,2,17,0.21
2013-3-6,86.2,77.6,69.3,69.5,67.4,65.4,91,72,57,29.88,29.76,12,3,18,0.00
2013-3-7,90.3,78.7,70.3,72.9,69.6,67.4,92,75,50,29.85,29.74,11,2,14,0.00
2013-3-8,84.7,76.5,71.1,73.0,68.1,61.9,91,76,60,29.85,29.76,8,2,11,0.00
2013-3-9,87.1,74.1,68.5,70.3,67.3,64.4,91,80,54,29.84,29.75,11,2,17,0.05
2013-3-10,84.4,76.9,71.6,69.4,65.2,60.3,90,68,48,29.82,29.72,11,3,16,0.01
2013-3-11,83.7,76.9,69.8,65.8,63.2,60.9,82,63,49,29.82,29.72,14,4,20,0.00
2013-3-12,84.0,77.6,70.9,65.0,61.5,55.2,78,59,40,29.88,29.76,14,4,21,0.00
2013-3-13,79.9,76.1,73.4,62.5,59.0,56.6,67,56,48,29.84,29.79,9,2,14,0.00
2013-3-14,86.2,79.8,72.9,63.9,61.5,56.5,73,54,42,29.82,29.67,14,4,21,0.00
2013-3-15,86.0,78.1,69.6,66.0,62.8,59.0,82,60,43,29.82,29.70,11,3,18,0.00
2013-3-16,85.5,76.9,69.6,70.2,66.2,61.3,85,70,49,29.85,29.74,16,4,22,0.04
2013-3-17,87.1,77.8,69.6,73.1,68.5,65.6,94,74,51,29.90,29.77,15,4,22,0.12
2013-3-18,84.6,76.8,70.7,71.5,68.7,65.5,94,77,56,29.90,29.79,16,4,24,0.28
2013-3-19,85.8,77.1,71.6,72.8,70.4,68.2,94,81,61,29.84,29.69,11,2,18,0.05
2013-3-20,89.6,80.6,72.0,72.2,69.6,65.9,91,71,47,29.77,29.64,14,4,19,0.00
2013-3-21,92.7,82.4,76.5,72.0,70.2,67.3,83,68,45,29.76,29.62,13,4,19,0.00
2013-3-22,93.2,81.2,73.9,76.2,71.8,68.7,93,75,47,29.83,29.70,11,3,17,0.35
2013-3-23,88.2,80.1,75.0,75.7,73.7,70.4,93,81,61,29.86,29.75,15,3,22,0.02
2013-3-24,87.4,81.5,74.5,74.1,72.0,66.9,90,73,60,29.82,29.66,14,4,24,0.00
2013-3-25,91.6,81.0,73.8,73.3,70.9,66.0,88,73,46,29.79,29.66,12,4,19,0.00
2013-3-26,92.1,82.4,73.8,73.2,70.0,64.8,88,68,42,29.83,29.69,14,4,21,0.00
2013-3-27,93.2,80.9,72.1,75.0,72.0,62.5,88,75,38,29.83,29.72,11,4,16,0.00
2013-3-28,87.6,80.8,73.4,74.2,70.7,68.2,90,72,53,29.83,29.73,12,4,18,0.00
2013-3-29,84.4,76.0,73.9,73.9,70.0,66.0,90,82,67,29.92,29.77,17,5,24,0.08
2013-3-30,81.9,76.2,71.4,73.6,70.2,66.3,95,82,68,29.93,29.83,14,5,24,0.56
2013-3-31,97.3,76.6,72.5,74.5,71.9,70.0,95,85,71,29.92,29.84,14,3,20,0.66